AAL5047 KSLC-KTUS

Flight info

Callsign AAL5047
Flight time 1h 23m
Altitude 39000
Route ARCHZ1 MLF BCE CORKR PXR DINGO6
Aircraft MD11/H-SDE1E2E3FGHIJ2J3J4J5M1RWXY/LB1D1

Departure

Time 2026-05-08 22:13
Airport Salt Lake City International Airport (KSLC)

Arrival

Time 2026-05-08 23:36
Airport Tucson International Airport (KTUS)
Time Latitude Longitude Altitude Speed Heading
2026-05-08 21:33 40.78402 -111.97830 4237 ft 0 kts 174°
2026-05-08 21:36 40.78403 -111.97830 4237 ft 0 kts 174°
2026-05-08 21:42 40.78404 -111.97830 4237 ft 0 kts 174°
2026-05-08 21:47 40.78405 -111.97830 4237 ft 0 kts 174°
2026-05-08 21:47 40.78405 -111.97831 4237 ft 0 kts 174°
2026-05-08 21:52 40.78406 -111.97831 4237 ft 0 kts 174°
2026-05-08 21:57 40.78407 -111.97831 4237 ft 0 kts 174°
2026-05-08 22:01 40.78408 -111.97831 4237 ft 0 kts 174°
2026-05-08 22:07 40.78398 -111.97841 4242 ft 4 kts 217°
2026-05-08 22:07 40.78387 -111.97878 4237 ft 4 kts 271°
2026-05-08 22:07 40.78411 -111.97914 4237 ft 9 kts 327°
2026-05-08 22:08 40.78459 -111.97919 4238 ft 4 kts 29°
2026-05-08 22:08 40.78509 -111.97818 4237 ft 18 kts 65°
2026-05-08 22:08 40.78523 -111.97714 4237 ft 4 kts 93°
2026-05-08 22:08 40.78481 -111.97661 4237 ft 15 kts 155°
2026-05-08 22:09 40.78338 -111.97632 4236 ft 25 kts 175°
2026-05-08 22:09 40.78173 -111.97615 4236 ft 23 kts 175°
2026-05-08 22:09 40.78008 -111.97593 4256 ft 28 kts 172°
2026-05-08 22:09 40.77824 -111.97527 4256 ft 26 kts 170°
2026-05-08 22:10 40.77656 -111.97503 4257 ft 15 kts 171°
2026-05-08 22:10 40.77647 -111.97500 4257 ft 0 kts 168°
2026-05-08 22:10 40.77631 -111.97498 4257 ft 8 kts 173°
2026-05-08 22:10 40.77521 -111.97487 4255 ft 21 kts 181°
2026-05-08 22:11 40.77464 -111.97455 4256 ft 6 kts 116°
2026-05-08 22:11 40.77477 -111.97375 4255 ft 11 kts 57°
2026-05-08 22:11 40.77549 -111.97327 4256 ft 5 kts
2026-05-08 22:11 40.77563 -111.97328 4256 ft 0 kts 358°
2026-05-08 22:12 40.77572 -111.97328 4256 ft 11 kts 358°
2026-05-08 22:12 40.78003 -111.97379 4256 ft 113 kts 354°
2026-05-08 22:12 40.79087 -111.97503 4268 ft 190 kts 352°
2026-05-08 22:13 40.80475 -111.97648 5044 ft 212 kts 351°
2026-05-08 22:13 40.81988 -111.97887 6065 ft 224 kts 349°
2026-05-08 22:13 40.83518 -111.98156 7091 ft 223 kts 345°
2026-05-08 22:13 40.84924 -111.99041 7859 ft 230 kts 312°
2026-05-08 22:14 40.85689 -112.00971 8110 ft 250 kts 283°
2026-05-08 22:14 40.86019 -112.03201 8875 ft 252 kts 279°
2026-05-08 22:14 40.86287 -112.05530 9506 ft 260 kts 279°
2026-05-08 22:14 40.86499 -112.07944 10087 ft 269 kts 277°
2026-05-08 22:15 40.86643 -112.10430 10630 ft 274 kts 275°
2026-05-08 22:15 40.86731 -112.13000 10843 ft 287 kts 272°
2026-05-08 22:15 40.86637 -112.15684 10958 ft 299 kts 267°
2026-05-08 22:15 40.86432 -112.18531 11188 ft 327 kts 266°
2026-05-08 22:16 40.86188 -112.21645 11714 ft 347 kts 265°
2026-05-08 22:16 40.85518 -112.24740 12690 ft 358 kts 247°
2026-05-08 22:16 40.84053 -112.27453 13690 ft 372 kts 228°
2026-05-08 22:16 40.81920 -112.29468 14550 ft 386 kts 210°
2026-05-08 22:17 40.79330 -112.30540 15417 ft 398 kts 192°
2026-05-08 22:17 40.76531 -112.30749 16258 ft 407 kts 183°
2026-05-08 22:17 40.73678 -112.30640 17099 ft 413 kts 181°
2026-05-08 22:17 40.70795 -112.30532 17954 ft 417 kts 182°
2026-05-08 22:18 40.67882 -112.30521 18688 ft 421 kts 184°
2026-05-08 22:18 40.64943 -112.30611 19377 ft 424 kts 185°
2026-05-08 22:18 40.61984 -112.30772 20048 ft 428 kts 186°
2026-05-08 22:18 40.58999 -112.30976 20703 ft 432 kts 187°
2026-05-08 22:19 40.56012 -112.31390 21337 ft 432 kts 194°
2026-05-08 22:19 40.53087 -112.32300 22033 ft 433 kts 200°
2026-05-08 22:19 40.51174 -112.33051 22476 ft 435 kts 201°
2026-05-08 22:19 40.48285 -112.34286 23174 ft 439 kts 202°
2026-05-08 22:20 40.45375 -112.35561 23838 ft 443 kts 202°
2026-05-08 22:20 40.42431 -112.36837 24453 ft 447 kts 202°
2026-05-08 22:20 40.39457 -112.38102 25076 ft 451 kts 201°
2026-05-08 22:20 40.36452 -112.39359 25701 ft 456 kts 201°
2026-05-08 22:21 40.33416 -112.40614 26329 ft 460 kts 201°
2026-05-08 22:21 40.30347 -112.41876 26942 ft 464 kts 201°
2026-05-08 22:21 40.27251 -112.43143 27540 ft 468 kts 200°
2026-05-08 22:21 40.24129 -112.44421 28153 ft 472 kts 200°
2026-05-08 22:22 40.20978 -112.45709 28749 ft 477 kts 200°
2026-05-08 22:22 40.17830 -112.47097 29321 ft 478 kts 205°
2026-05-08 22:22 40.14791 -112.48879 29891 ft 480 kts 209°
2026-05-08 22:22 40.11823 -112.50917 30345 ft 484 kts 212°
2026-05-08 22:23 40.08873 -112.53069 30807 ft 486 kts 212°
2026-05-08 22:23 40.05935 -112.55238 31373 ft 485 kts 212°
2026-05-08 22:23 40.02997 -112.57388 31975 ft 484 kts 212°
2026-05-08 22:23 40.00059 -112.59508 32579 ft 482 kts 212°
2026-05-08 22:24 39.97125 -112.61602 33171 ft 480 kts 211°
2026-05-08 22:24 39.94193 -112.63678 33744 ft 479 kts 211°
2026-05-08 22:24 39.91271 -112.65741 34218 ft 478 kts 211°
2026-05-08 22:24 39.88346 -112.67801 34608 ft 478 kts 211°
2026-05-08 22:25 39.85422 -112.69859 35020 ft 478 kts 211°
2026-05-08 22:25 39.82493 -112.71919 35401 ft 478 kts 211°
2026-05-08 22:25 39.79574 -112.73970 35789 ft 478 kts 211°
2026-05-08 22:25 39.76646 -112.76026 36171 ft 478 kts 211°
2026-05-08 22:26 39.73723 -112.78077 36553 ft 477 kts 211°
2026-05-08 22:26 39.70798 -112.80116 36875 ft 478 kts 210°
2026-05-08 22:26 39.67742 -112.81840 37208 ft 481 kts 201°
2026-05-08 22:26 39.64486 -112.82898 37537 ft 485 kts 192°
2026-05-08 22:27 39.61124 -112.83455 37864 ft 487 kts 188°
2026-05-08 22:27 39.57743 -112.83815 38202 ft 488 kts 187°
2026-05-08 22:27 39.54359 -112.84150 38532 ft 488 kts 187°
2026-05-08 22:27 39.50976 -112.84529 38812 ft 487 kts 188°
2026-05-08 22:28 39.47601 -112.84961 38924 ft 488 kts 188°
2026-05-08 22:28 39.40821 -112.85936 38955 ft 491 kts 189°
2026-05-08 22:29 39.34081 -112.86952 38908 ft 491 kts 189°
2026-05-08 22:29 39.27285 -112.87973 38906 ft 491 kts 189°
2026-05-08 22:30 39.20488 -112.88985 38905 ft 493 kts 189°
2026-05-08 22:30 39.13673 -112.89993 38906 ft 493 kts 189°
2026-05-08 22:31 39.06856 -112.91001 38906 ft 493 kts 189°
2026-05-08 22:31 39.00038 -112.92008 38902 ft 493 kts 189°
2026-05-08 22:32 38.93218 -112.93014 38903 ft 493 kts 189°
2026-05-08 22:32 38.86393 -112.94019 38903 ft 493 kts 189°
2026-05-08 22:33 38.79579 -112.95020 38906 ft 493 kts 189°
2026-05-08 22:33 38.72769 -112.96018 38912 ft 492 kts 189°
2026-05-08 22:34 38.65963 -112.97014 38982 ft 492 kts 189°
2026-05-08 22:34 38.59166 -112.98007 39018 ft 491 kts 189°
2026-05-08 22:35 38.52364 -112.98999 39057 ft 492 kts 189°
2026-05-08 22:35 38.45561 -112.99968 39063 ft 492 kts 187°
2026-05-08 22:36 38.38707 -112.99832 39061 ft 496 kts 172°
2026-05-08 22:36 38.32174 -112.97040 39053 ft 499 kts 152°
2026-05-08 22:37 38.26531 -112.91925 39019 ft 499 kts 139°
2026-05-08 22:37 38.21338 -112.86061 38980 ft 499 kts 137°
2026-05-08 22:38 38.16129 -112.80244 38955 ft 498 kts 139°
2026-05-08 22:38 38.10884 -112.74575 38938 ft 498 kts 139°
2026-05-08 22:39 38.05591 -112.68931 38954 ft 497 kts 139°
2026-05-08 22:39 38.00296 -112.63289 38952 ft 497 kts 140°
2026-05-08 22:40 37.95005 -112.57657 38960 ft 496 kts 140°
2026-05-08 22:40 37.89711 -112.52031 38961 ft 497 kts 140°
2026-05-08 22:41 37.84411 -112.46410 39027 ft 497 kts 140°
2026-05-08 22:41 37.79097 -112.40785 39083 ft 499 kts 140°
2026-05-08 22:42 37.73686 -112.35307 39137 ft 499 kts 146°
2026-05-08 22:42 37.67490 -112.31461 39165 ft 496 kts 165°
2026-05-08 22:42 37.64121 -112.30593 39155 ft 494 kts 176°
2026-05-08 22:43 37.60707 -112.30425 39137 ft 491 kts 184°
2026-05-08 22:43 37.53893 -112.30972 39081 ft 490 kts 187°
2026-05-08 22:44 37.47088 -112.31621 39015 ft 491 kts 186°
2026-05-08 22:44 37.40267 -112.32113 38924 ft 491 kts 185°
2026-05-08 22:45 37.33455 -112.32531 38902 ft 490 kts 185°
2026-05-08 22:45 37.26649 -112.32939 38903 ft 489 kts 185°
2026-05-08 22:46 37.19845 -112.33351 38898 ft 489 kts 185°
2026-05-08 22:46 37.13047 -112.33767 38891 ft 488 kts 185°
2026-05-08 22:47 37.06270 -112.34180 38899 ft 488 kts 185°
2026-05-08 22:47 36.99491 -112.34593 38895 ft 488 kts 185°
2026-05-08 22:48 36.92712 -112.35005 38905 ft 487 kts 185°
2026-05-08 22:48 36.85950 -112.35414 38917 ft 486 kts 185°
2026-05-08 22:49 36.79190 -112.35824 38917 ft 486 kts 185°
2026-05-08 22:49 36.69054 -112.36433 38926 ft 486 kts 185°
2026-05-08 22:50 36.62305 -112.36839 38940 ft 486 kts 185°
2026-05-08 22:50 36.55551 -112.37246 38942 ft 486 kts 185°
2026-05-08 22:51 36.48807 -112.37651 38939 ft 485 kts 185°
2026-05-08 22:51 36.42080 -112.38053 38935 ft 483 kts 185°
2026-05-08 22:52 36.35365 -112.38455 38940 ft 483 kts 185°
2026-05-08 22:52 36.28650 -112.38857 38930 ft 483 kts 185°
2026-05-08 22:53 36.21932 -112.39257 38955 ft 483 kts 185°
2026-05-08 22:53 36.15268 -112.39654 38989 ft 483 kts 185°
2026-05-08 22:54 36.08552 -112.40009 39027 ft 484 kts 182°
2026-05-08 22:54 36.01827 -112.39331 39052 ft 486 kts 174°
2026-05-08 22:55 35.95127 -112.38096 39071 ft 487 kts 173°
2026-05-08 22:55 35.88429 -112.36875 39076 ft 486 kts 174°
2026-05-08 22:56 35.85078 -112.36295 38940 ft 486 kts 174°
2026-05-08 22:56 35.81726 -112.35727 38938 ft 486 kts 174°
2026-05-08 22:56 35.75021 -112.34608 38940 ft 486 kts 174°
2026-05-08 22:57 35.68311 -112.33491 38937 ft 486 kts 174°
2026-05-08 22:57 35.61604 -112.32374 38943 ft 486 kts 174°
2026-05-08 22:58 35.54892 -112.31257 39023 ft 486 kts 174°
2026-05-08 22:58 35.48184 -112.30142 39078 ft 486 kts 174°
2026-05-08 22:59 35.41473 -112.29029 39131 ft 487 kts 174°
2026-05-08 22:59 35.34764 -112.27918 39166 ft 486 kts 174°
2026-05-08 23:00 35.28062 -112.26810 39173 ft 486 kts 174°
2026-05-08 23:00 35.21356 -112.25707 39158 ft 486 kts 174°
2026-05-08 23:01 35.14658 -112.24607 38906 ft 486 kts 174°
2026-05-08 23:01 35.07966 -112.23508 38886 ft 485 kts 174°
2026-05-08 23:02 35.01277 -112.22409 38876 ft 485 kts 174°
2026-05-08 23:02 34.94596 -112.21314 38891 ft 485 kts 174°
2026-05-08 23:03 34.87910 -112.20220 38919 ft 485 kts 174°
2026-05-08 23:03 34.81223 -112.19127 38952 ft 485 kts 174°
2026-05-08 23:04 34.75664 -112.18220 38973 ft 485 kts 174°
2026-05-08 23:04 34.68974 -112.17130 38981 ft 485 kts 174°
2026-05-08 23:05 34.62291 -112.16043 38974 ft 484 kts 174°
2026-05-08 23:05 34.55610 -112.14959 38956 ft 484 kts 174°
2026-05-08 23:06 34.48938 -112.13877 38923 ft 484 kts 174°
2026-05-08 23:06 34.42263 -112.12797 38864 ft 485 kts 174°
2026-05-08 23:07 34.35549 -112.11718 38864 ft 487 kts 174°
2026-05-08 23:07 34.28824 -112.10635 38862 ft 487 kts 174°
2026-05-08 23:08 34.22100 -112.09552 38862 ft 488 kts 174°
2026-05-08 23:08 34.15382 -112.08471 38851 ft 485 kts 174°
2026-05-08 23:09 34.08693 -112.07396 38855 ft 485 kts 174°
2026-05-08 23:09 34.02011 -112.06326 38864 ft 485 kts 174°
2026-05-08 23:10 33.95329 -112.05257 38854 ft 484 kts 174°
2026-05-08 23:10 33.88691 -112.04196 38845 ft 484 kts 174°
2026-05-08 23:11 33.82005 -112.03130 38844 ft 484 kts 174°
2026-05-08 23:11 33.75327 -112.02066 38836 ft 484 kts 174°
2026-05-08 23:12 33.68645 -112.01003 38858 ft 485 kts 174°
2026-05-08 23:12 33.61965 -111.99943 38869 ft 484 kts 174°
2026-05-08 23:13 33.55282 -111.98886 38869 ft 484 kts 174°
2026-05-08 23:13 33.48600 -111.97832 38830 ft 484 kts 174°
2026-05-08 23:14 33.41932 -111.96831 38831 ft 482 kts 175°
2026-05-08 23:14 33.35262 -111.96046 38832 ft 482 kts 176°
2026-05-08 23:15 33.28586 -111.95315 38845 ft 482 kts 176°
2026-05-08 23:15 33.21911 -111.94572 38560 ft 482 kts 176°
2026-05-08 23:16 33.18573 -111.94197 38200 ft 483 kts 176°
2026-05-08 23:16 33.15222 -111.93819 37743 ft 483 kts 176°
2026-05-08 23:16 33.11864 -111.93440 37137 ft 485 kts 176°
2026-05-08 23:16 33.08503 -111.93060 36574 ft 486 kts 176°
2026-05-08 23:17 33.05131 -111.92680 36015 ft 488 kts 176°
2026-05-08 23:17 33.01738 -111.92298 35443 ft 490 kts 176°
2026-05-08 23:17 32.98338 -111.91915 34881 ft 492 kts 176°
2026-05-08 23:17 32.94931 -111.91532 34330 ft 493 kts 176°
2026-05-08 23:18 32.91506 -111.91099 33765 ft 495 kts 173°
2026-05-08 23:18 32.88132 -111.90223 33106 ft 499 kts 163°
2026-05-08 23:18 32.84911 -111.88668 32485 ft 501 kts 153°
2026-05-08 23:18 32.81943 -111.86492 31876 ft 502 kts 144°
2026-05-08 23:19 32.79165 -111.83950 31273 ft 505 kts 141°
2026-05-08 23:19 32.76431 -111.81320 30660 ft 506 kts 141°
2026-05-08 23:19 32.73667 -111.78727 30006 ft 506 kts 141°
2026-05-08 23:19 32.70861 -111.76212 29264 ft 504 kts 143°
2026-05-08 23:20 32.68042 -111.73782 28556 ft 498 kts 143°
2026-05-08 23:20 32.65229 -111.71418 27891 ft 493 kts 144°
2026-05-08 23:20 32.62434 -111.69097 27249 ft 488 kts 144°
2026-05-08 23:20 32.59660 -111.66803 26611 ft 483 kts 144°
2026-05-08 23:21 32.56920 -111.64534 25985 ft 477 kts 143°
2026-05-08 23:21 32.54387 -111.62038 25350 ft 471 kts 134°
2026-05-08 23:21 32.52232 -111.59146 24709 ft 467 kts 126°
2026-05-08 23:21 32.50297 -111.56085 24125 ft 462 kts 123°
2026-05-08 23:22 32.48455 -111.52996 23497 ft 456 kts 123°
2026-05-08 23:22 32.46640 -111.49946 22743 ft 449 kts 124°
2026-05-08 23:22 32.44839 -111.46967 22067 ft 442 kts 123°
2026-05-08 23:22 32.43044 -111.44039 21406 ft 437 kts 124°
2026-05-08 23:23 32.41252 -111.41163 20773 ft 431 kts 124°
2026-05-08 23:23 32.39476 -111.38332 20153 ft 427 kts 124°
2026-05-08 23:23 32.37686 -111.35555 19527 ft 423 kts 128°
2026-05-08 23:23 32.35617 -111.33093 18923 ft 420 kts 136°
2026-05-08 23:24 32.33397 -111.30945 18302 ft 417 kts 140°
2026-05-08 23:24 32.31088 -111.28894 17630 ft 413 kts 140°
2026-05-08 23:24 32.28783 -111.26890 16998 ft 409 kts 141°
2026-05-08 23:24 32.26502 -111.24898 16400 ft 406 kts 140°
2026-05-08 23:25 32.24253 -111.22910 15813 ft 402 kts 141°
2026-05-08 23:25 32.22026 -111.20924 15235 ft 400 kts 141°
2026-05-08 23:25 32.19819 -111.18945 14654 ft 397 kts 141°
2026-05-08 23:25 32.17630 -111.16977 14097 ft 394 kts 142°
2026-05-08 23:26 32.15455 -111.15020 13514 ft 391 kts 142°
2026-05-08 23:26 32.13301 -111.13083 12873 ft 389 kts 141°
2026-05-08 23:26 32.11154 -111.11153 12291 ft 388 kts 141°
2026-05-08 23:26 32.08997 -111.09217 11728 ft 388 kts 142°
2026-05-08 23:27 32.06839 -111.07285 11198 ft 387 kts 142°
2026-05-08 23:27 32.04699 -111.05371 10925 ft 386 kts 142°
2026-05-08 23:27 32.02638 -111.03532 10802 ft 351 kts 142°
2026-05-08 23:27 32.00791 -111.01888 10672 ft 319 kts 142°
2026-05-08 23:28 31.99046 -111.00336 10547 ft 313 kts 142°
2026-05-08 23:28 31.97334 -110.98811 10196 ft 307 kts 142°
2026-05-08 23:28 31.95622 -110.97287 9696 ft 308 kts 142°
2026-05-08 23:28 31.93906 -110.95761 9167 ft 309 kts 142°
2026-05-08 23:29 31.92209 -110.94253 8643 ft 304 kts 142°
2026-05-08 23:29 31.90536 -110.92745 8182 ft 301 kts 140°
2026-05-08 23:29 31.89136 -110.90943 7807 ft 295 kts 119°
2026-05-08 23:29 31.88507 -110.88699 7443 ft 288 kts 90°
2026-05-08 23:30 31.88849 -110.86433 7100 ft 280 kts 60°
2026-05-08 23:30 31.89942 -110.84591 6779 ft 271 kts 44°
2026-05-08 23:30 31.91199 -110.83064 6437 ft 239 kts 40°
2026-05-08 23:30 31.92283 -110.81806 6040 ft 194 kts 39°
2026-05-08 23:31 31.93180 -110.80769 6098 ft 171 kts 37°
2026-05-08 23:31 31.94038 -110.79828 6142 ft 165 kts 29°
2026-05-08 23:31 31.94992 -110.79100 5992 ft 162 kts 19°
2026-05-08 23:31 31.96083 -110.78691 5630 ft 169 kts
2026-05-08 23:32 31.97261 -110.78664 5294 ft 170 kts 348°
2026-05-08 23:32 31.98382 -110.79049 5045 ft 165 kts 332°
2026-05-08 23:32 31.99331 -110.79797 4878 ft 165 kts 318°
2026-05-08 23:32 32.00169 -110.80727 4778 ft 165 kts 316°
2026-05-08 23:33 32.00999 -110.81672 4686 ft 167 kts 320°
2026-05-08 23:33 32.01836 -110.82624 4514 ft 168 kts 317°
2026-05-08 23:33 32.02686 -110.83599 4416 ft 173 kts 317°
2026-05-08 23:33 32.03528 -110.84569 4369 ft 169 kts 316°
2026-05-08 23:34 32.04375 -110.85548 4370 ft 172 kts 317°
2026-05-08 23:34 32.05189 -110.86489 4166 ft 153 kts 315°
2026-05-08 23:34 32.05904 -110.87316 3884 ft 140 kts 314°
2026-05-08 23:34 32.06598 -110.88124 3560 ft 142 kts 314°
2026-05-08 23:35 32.07281 -110.88944 3262 ft 137 kts 314°
2026-05-08 23:35 32.07979 -110.89754 3162 ft 138 kts 315°
2026-05-08 23:35 32.08676 -110.90577 3064 ft 145 kts 311°
2026-05-08 23:35 32.09390 -110.91321 2877 ft 129 kts 315°
2026-05-08 23:36 32.10069 -110.92140 2680 ft 143 kts 314°
2026-05-08 23:36 32.10728 -110.92910 2616 ft 120 kts 314°
2026-05-08 23:36 32.11121 -110.93366 2617 ft 58 kts 316°
2026-05-08 23:36 32.11367 -110.93642 2618 ft 25 kts 317°
2026-05-08 23:37 32.11442 -110.93675 2616 ft 8 kts 11°
2026-05-08 23:37 32.11505 -110.93628 2615 ft 10 kts 19°
2026-05-08 23:37 32.11583 -110.93660 2615 ft 19 kts 319°
2026-05-08 23:37 32.11691 -110.93786 2614 ft 15 kts 322°
2026-05-08 23:38 32.11779 -110.93810 2614 ft 10 kts 358°
2026-05-08 23:38 32.11827 -110.93781 2614 ft 11 kts 43°
2026-05-08 23:38 32.11848 -110.93747 2615 ft 0 kts 56°